Temp
20 20 20 20 15 12 14 16 17 20 23 25 26 25 24 25 24 21 24 23 23 23 23 22 22 21 21 21 21 21 21 21 21 21 20 20 20 20 21 20 20 19 19 18 17 17 17 17 16
19 19 19 19 13 13 14 16 19 19 24 25 25 25 24 23 25 25 24 24 23 23 23 23 22 21 20 20 21 21 21 21 21 20 20 20 20 20 21 20 20 19 19 18 18 17 17 16 16
18 18 19 13 10 13 14 17 18 22 23 24 24 25 25 24 25 26 25 24 23 23 23 23 22 21 19 19 20 20 21 21 20 20 20 20 20 21 20 20 20 19 19 18 18 17 17 16 16
18 18 17 13 13 13 15 18 20 19 22 24 24 23 25 25 26 25 25 24 23 23 23 23 23 21 19 19 20 20 21 21 20 20 20 20 21 21 20 20 19 19 19 19 18 17 16 16 16
18 17 12 11 13 13 16 18 19 19 21 22 23 22 24 25 25 25 25 24 23 23 23 24 22 20 18 19 19 20 20 21 20 20 20 21 20 20 20 20 19 19 19 19 18 17 15 15 15
17 15 11 11 14 16 17 20 19 20 21 23 23 23 24 24 24 24 24 24 23 23 24 23 22 20 19 18 19 20 20 20 20 20 20 20 20 20 20 19 19 19 19 19 18 17 15 15 15
14 11 10 12 14 16 19 20 18 20 21 21 24 22 22 23 24 24 23 23 23 23 23 23 21 19 19 18 19 19 19 20 20 20 20 20 20 20 19 19 19 19 19 19 18 17 16 15 15
16 11 11 12 16 16 19 20 21 20 20 22 24 21 20 24 22 22 22 22 23 23 23 23 21 19 19 19 19 19 19 19 19 20 20 20 20 19 19 19 19 19 19 18 18 17 16 16 15
16 12 14 15 15 17 19 18 20 21 21 22 23 23 23 24 21 21 21 21 21 21 22 23 22 20 19 19 19 19 19 19 19 19 19 19 19 19 19 19 19 18 18 18 18 17 17 16 16
14 10 15 16 17 16 18 18 19 19 19 20 21 22 23 23 20 20 20 19 19 21 22 22 22 21 20 19 19 19 18 18 18 18 19 19 19 19 19 19 19 18 18 17 17 17 16 16 16
14 15 17 17 18 18 18 17 18 18 18 19 20 21 22 22 22 22 22 22 23 22 22 22 22 20 21 20 19 19 19 18 18 18 18 18 19 18 18 18 18 17 17 17 17 16 16 16 16
14 15 16 16 17 17 16 17 17 18 18 19 20 20 21 21 22 22 22 23 22 22 22 22 21 21 20 20 20 19 19 18 18 18 18 18 18 18 18 17 18 17 18 17 17 16 16 15 15
14 15 16 16 16 16 17 17 17 17 18 19 20 20 20 21 21 22 23 23 23 23 23 22 22 21 21 20 20 19 19 18 18 18 17 18 18 18 18 18 18 18 18 17 17 16 16 15 15
14 14 15 15 15 16 16 16 17 18 18 19 19 19 20 21 22 21 21 21 22 22 22 22 21 22 21 21 20 20 19 19 18 18 18 18 18 18 18 18 18 17 17 17 17 17 16 15 15
14 13 14 15 15 15 16 15 16 17 19 19 19 19 19 20 21 21 22 21 21 21 22 22 22 21 21 21 20 20 20 19 18 18 18 18 17 18 17 18 17 17 17 17 16 16 15 15 15
12 13 12 14 14 15 15 14 18 19 18 18 18 19 19 20 20 21 22 22 22 22 21 21 21 22 21 21 20 19 20 19 19 18 18 18 18 17 17 17 17 17 16 16 16 16 16 15 15
12 12 13 13 15 14 14 15 17 18 19 18 19 19 19 19 20 21 22 22 22 22 21 21 21 21 21 21 21 20 19 19 19 17 18 18 18 17 17 17 16 16 16 16 16 16 16 15 14
13 12 13 13 15 15 15 15 17 18 19 19 19 19 19 19 19 20 21 21 21 21 21 21 21 20 21 21 20 19 18 15 16 16 17 18 18 17 17 16 16 16 16 15 16 16 15 15 14
13 13 13 14 15 14 15 15 16 17 17 18 19 18 18 18 19 20 20 20 20 20 20 20 21 20 20 19 15 17 16 15 15 15 16 16 17 17 16 16 16 15 16 16 16 15 15 14 14
12 12 12 14 14 15 14 15 16 17 17 17 18 18 18 18 18 18 18 19 20 20 22 22 21 20 20 18 18 18 19 18 19 16 15 15 15 16 17 16 16 16 15 15 15 15 15 14 14
9 11 11 13 13 14 15 14 15 16 17 17 17 17 18 18 17 17 17 19 20 21 22 22 22 21 21 20 19 15 16 16 15 15 15 15 15 14 14 15 16 16 15 15 15 14 15 14 14
6 9 11 12 12 12 15 13 15 16 16 17 17 17 17 17 17 18 18 19 20 21 23 22 23 21 21 20 17 15 15 15 15 16 16 15 15 15 13 14 15 15 15 15 15 14 14 14 15
9 10 9 8 7 7 9 11 12 16 16 17 17 17 17 17 17 17 18 19 20 21 22 22 20 22 22 20 19 17 15 15 15 17 17 14 15 14 14 15 14 15 15 14 14 14 13 13 14
8 9 9 8 9 8 10 9 11 13 14 16 17 10 11 14 15 17 17 18 19 20 20 21 20 20 18 17 17 16 16 16 15 15 15 15 15 15 15 15 15 14 14 14 14 14 14 13 13
6 7 6 8 8 9 12 10 11 9 10 12 8 7 7 7 10 12 13 13 14 16 18 19 17 16 15 15 15 15 17 18 18 18 15 15 15 15 15 15 14 15 14 14 14 14 15 14 14
5 7 7 9 9 8 11 10 10 9 8 7 6 6 5 5 5 6 7 8 10 11 14 16 14 14 14 14 14 16 18 18 18 18 17 16 15 15 15 16 16 15 14 14 14 14 15 14 14
6 7 8 7 8 8 10 9 9 7 6 6 6 5 5 5 5 5 7 8 8 9 10 11 12 13 14 14 16 17 17 17 18 17 16 15 14 16 14 14 16 15 15 15 14 14 15 14 14
4 4 7 7 8 8 7 10 8 6 4 5 5 5 4 4 4 5 5 6 7 8 9 10 10 10 11 12 13 13 16 17 17 17 16 15 15 14 15 14 14 14 14 14 14 14 15 14 14
5 5 5 6 6 6 5 5 3 4 3 3 5 4 3 3 3 3 5 5 6 7 7 8 9 9 10 10 11 12 13 13 15 16 14 14 13 13 13 13 13 13 13 13 13 13 14 14 14
5 5 4 5 5 5 5 4 1 2 3 3 3 2 2 1 1 2 3 5 5 6 6 7 7 8 8 9 10 10 10 11 12 12 12 12 12 12 13 13 13 12 13 11 13 13 13 13 13
Height
1511 1510 1508 1509 1522 1524 1530 1514 1498 1492 1486 1480 1477 1475 1476 1475 1479 1495 1476 1478 1479 1481 1483 1485 1487 1489 1492 1495 1498 1500 1501 1503 1506 1508 1510 1513 1516 1520 1523 1525 1529 1531 1534 1537 1538 1539 1541 1542 1544
1512 1512 1510 1508 1527 1534 1523 1500 1495 1486 1480 1481 1480 1476 1474 1472 1472 1473 1474 1476 1477 1479 1479 1482 1483 1485 1488 1493 1497 1500 1502 1504 1507 1508 1511 1513 1517 1521 1524 1527 1529 1532 1534 1537 1539 1540 1541 1543 1544
1512 1513 1513 1512 1525 1526 1516 1489 1484 1480 1479 1479 1478 1476 1473 1470 1469 1470 1470 1473 1475 1477 1477 1478 1479 1480 1483 1490 1495 1500 1503 1504 1507 1509 1511 1514 1517 1521 1525 1528 1530 1533 1535 1537 1540 1542 1542 1544 1545
1510 1513 1513 1518 1515 1502 1491 1480 1480 1480 1477 1477 1475 1474 1470 1468 1468 1469 1470 1471 1473 1474 1474 1474 1474 1476 1480 1487 1494 1498 1502 1504 1507 1510 1512 1515 1518 1522 1525 1529 1531 1534 1535 1537 1540 1543 1544 1546 1547
1510 1509 1517 1519 1506 1494 1485 1475 1481 1482 1479 1475 1476 1471 1465 1464 1466 1467 1469 1470 1471 1473 1471 1470 1471 1473 1479 1486 1492 1497 1501 1504 1508 1510 1512 1516 1519 1523 1526 1529 1531 1534 1536 1538 1540 1543 1546 1547 1549
1510 1508 1519 1516 1501 1488 1483 1475 1480 1476 1476 1472 1471 1467 1464 1460 1461 1463 1467 1468 1469 1470 1469 1468 1469 1472 1478 1485 1491 1496 1501 1504 1507 1511 1513 1516 1519 1524 1527 1529 1532 1535 1537 1539 1541 1544 1547 1549 1550
1508 1513 1511 1504 1499 1488 1476 1475 1474 1470 1471 1470 1469 1466 1463 1460 1460 1462 1464 1466 1467 1467 1468 1468 1469 1472 1477 1484 1490 1495 1500 1503 1507 1511 1514 1516 1520 1524 1527 1530 1533 1536 1538 1539 1542 1544 1547 1549 1552
1504 1507 1504 1499 1494 1474 1471 1473 1469 1468 1464 1466 1464 1464 1463 1458 1459 1461 1464 1464 1465 1466 1466 1467 1469 1473 1477 1483 1489 1494 1499 1502 1506 1510 1514 1516 1520 1524 1527 1530 1534 1536 1538 1540 1542 1544 1546 1549 1553
1499 1506 1485 1487 1486 1466 1464 1469 1466 1464 1461 1461 1463 1461 1462 1460 1460 1458 1460 1462 1463 1464 1464 1466 1468 1472 1476 1482 1487 1493 1498 1502 1505 1509 1513 1515 1519 1522 1526 1529 1533 1536 1538 1540 1543 1545 1547 1549 1553
1494 1499 1466 1467 1468 1465 1461 1465 1467 1464 1461 1459 1457 1457 1459 1458 1457 1456 1457 1460 1461 1461 1462 1465 1467 1470 1475 1480 1485 1491 1495 1499 1503 1506 1510 1513 1517 1521 1525 1527 1532 1535 1538 1541 1543 1546 1547 1548 1552
1483 1466 1454 1458 1462 1463 1458 1458 1461 1462 1457 1455 1453 1452 1455 1460 1457 1456 1457 1459 1461 1459 1461 1463 1465 1468 1472 1476 1481 1486 1490 1495 1499 1503 1506 1510 1514 1517 1521 1525 1528 1533 1537 1540 1543 1545 1546 1547 1551
1481 1462 1458 1447 1459 1458 1452 1453 1450 1451 1446 1452 1448 1447 1447 1453 1453 1450 1452 1454 1456 1457 1458 1461 1463 1464 1469 1473 1476 1480 1484 1489 1493 1498 1502 1506 1509 1513 1518 1522 1527 1531 1534 1538 1542 1545 1547 1548 1551
1469 1455 1452 1449 1451 1450 1453 1445 1442 1425 1440 1446 1438 1439 1439 1441 1446 1445 1443 1448 1450 1451 1454 1456 1459 1461 1463 1468 1472 1475 1479 1483 1488 1493 1498 1502 1504 1510 1516 1520 1523 1527 1531 1535 1539 1543 1546 1548 1549
1459 1455 1446 1446 1444 1445 1451 1436 1444 1400 1434 1433 1430 1429 1429 1431 1435 1437 1436 1440 1442 1446 1448 1451 1453 1457 1458 1462 1465 1469 1473 1478 1482 1487 1491 1496 1501 1506 1511 1516 1519 1523 1528 1533 1537 1541 1544 1547 1549
1450 1451 1441 1426 1436 1434 1450 1427 1406 1418 1428 1420 1422 1421 1422 1423 1428 1428 1430 1431 1434 1440 1443 1443 1446 1450 1452 1455 1459 1462 1466 1471 1475 1480 1485 1491 1496 1500 1507 1512 1515 1519 1525 1530 1536 1539 1543 1545 1548
1446 1442 1438 1417 1428 1422 1437 1418 1349 1407 1413 1408 1412 1411 1412 1411 1415 1418 1421 1424 1424 1428 1432 1435 1437 1440 1443 1447 1451 1455 1459 1463 1468 1473 1479 1485 1490 1496 1501 1505 1509 1515 1522 1527 1532 1536 1540 1543 1545
1428 1423 1423 1416 1411 1419 1419 1394 1360 1396 1399 1398 1399 1401 1401 1402 1404 1409 1410 1411 1414 1416 1418 1422 1424 1428 1432 1439 1443 1447 1452 1456 1461 1467 1473 1479 1484 1489 1495 1500 1505 1512 1519 1522 1527 1532 1536 1540 1543
1415 1415 1411 1411 1383 1419 1396 1389 1369 1385 1388 1386 1389 1392 1392 1394 1395 1398 1399 1401 1405 1407 1407 1411 1413 1416 1423 1429 1435 1440 1446 1451 1455 1460 1465 1471 1476 1482 1489 1494 1499 1506 1513 1517 1522 1527 1532 1537 1540
1409 1407 1401 1389 1396 1410 1378 1392 1366 1370 1381 1377 1376 1379 1382 1381 1387 1388 1389 1390 1392 1394 1397 1400 1402 1405 1413 1418 1425 1432 1436 1443 1448 1452 1457 1464 1470 1475 1483 1488 1492 1500 1505 1512 1517 1523 1528 1533 1536
1406 1402 1388 1386 1394 1392 1381 1376 1355 1361 1362 1367 1372 1369 1371 1375 1377 1377 1377 1378 1379 1380 1384 1387 1390 1395 1402 1408 1416 1422 1428 1434 1439 1446 1452 1458 1463 1466 1474 1478 1483 1491 1499 1505 1510 1515 1521 1527 1530
1399 1386 1387 1387 1387 1378 1375 1364 1348 1336 1355 1358 1358 1360 1361 1363 1365 1366 1366 1366 1369 1369 1372 1376 1382 1387 1394 1400 1408 1416 1424 1431 1435 1440 1445 1452 1456 1459 1467 1472 1477 1485 1491 1497 1503 1507 1512 1516 1525
1397 1395 1382 1384 1386 1370 1370 1356 1337 1332 1345 1346 1343 1349 1349 1352 1352 1354 1355 1357 1358 1361 1364 1366 1373 1379 1385 1391 1397 1404 1411 1419 1426 1431 1438 1443 1448 1452 1459 1466 1472 1478 1484 1489 1495 1502 1506 1511 1515
1365 1385 1386 1383 1381 1381 1370 1356 1307 1333 1329 1329 1331 1337 1339 1334 1340 1344 1346 1350 1349 1354 1357 1361 1367 1371 1376 1381 1388 1394 1403 1411 1419 1423 1429 1436 1441 1447 1452 1458 1465 1471 1477 1482 1488 1492 1499 1505 1509
1369 1375 1376 1380 1371 1365 1361 1364 1331 1342 1330 1324 1322 1333 1333 1329 1331 1336 1343 1340 1339 1343 1349 1356 1360 1367 1371 1376 1382 1387 1394 1404 1411 1416 1422 1427 1434 1440 1446 1451 1457 1465 1470 1474 1479 1486 1492 1497 1502
1364 1370 1376 1369 1360 1349 1338 1356 1343 1338 1328 1329 1334 1336 1332 1332 1327 1330 1333 1333 1332 1336 1341 1347 1352 1359 1364 1373 1380 1385 1393 1400 1407 1410 1415 1423 1427 1431 1438 1442 1447 1454 1461 1467 1474 1480 1483 1488 1493
1360 1355 1354 1345 1343 1345 1327 1339 1340 1338 1338 1338 1340 1338 1337 1338 1341 1336 1335 1334 1333 1337 1339 1341 1348 1355 1360 1367 1374 1381 1388 1395 1401 1408 1414 1415 1420 1427 1434 1436 1440 1446 1452 1458 1465 1471 1475 1479 1484
1353 1341 1338 1351 1343 1346 1334 1335 1339 1340 1349 1347 1345 1344 1341 1349 1351 1347 1343 1339 1342 1342 1342 1343 1347 1351 1356 1364 1366 1376 1382 1387 1392 1397 1403 1407 1405 1418 1428 1432 1435 1438 1443 1447 1453 1458 1465 1471 1476
1361 1356 1335 1341 1343 1337 1344 1325 1341 1351 1357 1355 1347 1349 1356 1359 1359 1354 1352 1350 1350 1350 1351 1351 1352 1354 1359 1362 1363 1367 1373 1380 1387 1392 1398 1401 1408 1415 1421 1424 1431 1431 1435 1441 1446 1449 1454 1460 1465
1360 1355 1346 1329 1336 1345 1362 1364 1370 1366 1365 1362 1355 1359 1365 1365 1370 1365 1359 1359 1357 1357 1357 1358 1356 1362 1363 1365 1368 1371 1373 1377 1382 1387 1392 1395 1402 1407 1413 1415 1423 1425 1426 1434 1437 1442 1447 1450 1455
1367 1362 1357 1345 1345 1350 1350 1370 1373 1372 1369 1370 1366 1363 1367 1371 1371 1375 1367 1366 1362 1364 1363 1364 1366 1366 1368 1371 1373 1375 1378 1381 1383 1385 1390 1395 1397 1402 1407 1412 1411 1418 1425 1426 1429 1434 1438 1441 1445
Wind_Speed
5 4 2 1 3 5 4 7 3 7 5 4 6 6 7 4 5 4 8 12 9 9 8 12 15 23 30 34 34 35 35 32 31 30 29 27 25 23 23 24 23 21 19 17 16 14 14 14 14
6 5 2 3 4 2 6 5 9 8 9 21 12 6 3 7 10 6 15 15 11 8 5 7 11 23 33 37 37 36 35 32 31 31 29 27 25 24 25 24 23 21 19 17 16 16 16 17 17
7 5 3 3 5 7 6 7 10 4 6 16 7 10 6 4 14 6 16 16 12 7 4 5 10 23 36 40 38 36 34 32 32 31 30 29 27 26 25 24 23 22 21 19 17 18 19 19 19
4 4 2 2 9 8 8 7 2 10 21 10 12 6 7 8 5 13 16 15 10 6 3 3 7 23 39 42 40 38 34 32 32 31 31 30 28 28 27 25 23 22 21 20 20 19 21 20 18
7 2 2 4 10 7 6 23 4 6 5 16 17 15 5 8 14 16 18 14 8 3 2 6 6 23 40 43 41 38 35 32 32 31 31 30 29 28 27 26 24 23 22 22 22 21 22 20 18
4 2 1 7 13 8 7 27 6 13 17 22 10 13 8 15 18 18 18 14 9 2 5 5 7 27 40 43 41 39 35 32 32 31 31 30 29 28 27 26 24 23 22 23 23 23 23 19 16
4 2 6 5 4 11 14 10 12 14 12 13 21 5 5 15 22 20 18 14 8 6 3 4 10 30 39 43 42 39 35 33 32 31 31 30 29 28 26 25 24 24 24 23 23 24 22 18 15
5 3 5 6 10 25 23 13 22 12 9 18 10 3 4 22 26 23 19 16 11 9 6 3 10 30 38 43 42 40 37 33 32 31 31 30 29 28 26 25 25 25 25 24 24 24 22 18 15
5 3 18 14 14 21 3 3 9 10 17 19 20 20 20 16 27 27 25 22 18 18 14 10 9 28 36 41 42 40 37 34 32 31 30 30 29 29 27 25 25 25 25 25 24 24 22 20 15
9 6 19 14 15 13 13 11 16 10 14 15 29 30 16 9 32 30 29 28 24 21 17 17 18 27 36 40 42 39 37 36 34 34 33 32 31 29 27 25 24 25 25 26 25 25 24 21 18
8 25 26 23 20 25 25 22 27 19 19 27 22 32 18 18 28 29 25 24 21 21 20 20 21 31 38 43 43 42 41 39 38 36 36 34 33 33 31 27 27 26 27 28 28 29 27 23 19
14 29 31 34 31 28 19 29 20 26 30 38 41 40 37 25 28 28 29 24 24 21 21 23 25 29 37 43 46 46 45 44 42 41 40 38 38 36 34 30 28 27 28 28 29 30 29 26 22
20 25 35 37 37 38 33 30 34 46 38 42 50 39 35 34 36 35 32 28 27 26 24 25 28 30 36 43 47 49 48 47 46 44 43 42 41 37 34 32 30 30 29 30 30 31 31 29 25
8 26 31 35 35 34 26 31 30 49 35 45 48 42 36 35 35 33 27 29 31 27 28 28 31 33 37 40 47 50 51 50 49 48 47 45 42 41 40 38 36 34 32 31 31 32 33 32 28
29 22 24 29 25 23 21 31 38 38 28 40 41 36 36 36 35 35 32 30 29 32 32 34 35 37 40 42 45 51 53 53 53 52 50 48 46 45 43 41 41 38 32 31 32 33 33 33 31
17 16 19 18 17 18 22 32 53 25 33 43 45 43 42 49 48 47 44 41 39 38 39 39 41 43 42 45 48 52 54 56 55 54 53 50 49 48 46 46 45 41 35 32 34 34 35 35 34
17 26 28 33 30 9 20 31 45 29 28 31 43 44 44 45 45 49 46 49 43 38 42 42 42 47 50 47 50 51 54 56 56 54 54 52 52 51 49 48 47 43 37 36 35 36 36 38 37
25 20 20 30 38 19 33 31 37 24 21 32 35 33 29 33 36 41 43 47 44 44 42 41 43 48 51 51 53 52 50 53 55 55 55 54 53 53 51 50 49 45 42 40 38 38 38 38 38
32 30 31 30 21 18 36 24 37 28 28 25 33 32 34 35 36 46 49 53 51 47 47 44 46 49 52 57 53 53 51 49 52 55 53 54 53 52 51 52 51 48 46 44 41 40 40 40 41
34 39 39 29 27 20 24 27 36 29 29 33 35 42 37 38 37 48 50 47 44 38 42 42 42 47 50 54 56 56 55 53 51 52 52 53 51 54 52 53 53 51 49 46 45 43 44 44 45
29 36 34 34 23 28 27 33 38 33 28 36 39 42 42 40 38 45 43 41 40 32 34 40 44 47 48 52 54 49 48 46 48 50 51 51 53 54 51 52 52 51 51 50 49 48 48 49 47
34 29 27 36 31 30 25 22 35 25 24 24 25 36 41 41 41 46 47 44 42 33 30 38 45 46 48 54 56 52 50 45 46 50 50 51 53 52 50 52 52 50 51 52 50 49 50 49 51
40 23 21 19 21 14 14 13 25 6 23 23 20 29 42 50 43 42 40 36 37 36 32 34 45 45 50 55 56 56 51 49 45 49 48 52 50 46 50 53 51 50 50 51 51 50 51 51 52
28 27 22 21 15 17 17 4 16 13 12 13 13 7 8 15 21 36 36 37 34 33 33 35 38 43 48 51 55 56 55 50 46 47 48 48 49 48 54 51 52 51 50 51 50 47 46 50 52
16 14 11 13 9 14 12 11 16 7 16 10 14 16 22 23 13 11 12 12 16 18 25 30 35 39 42 43 46 50 46 43 44 45 45 47 46 48 52 50 52 53 52 53 52 47 47 48 50
15 20 10 13 5 3 7 8 2 8 15 24 23 24 27 29 27 31 29 27 25 23 25 31 32 38 37 40 45 46 44 43 42 41 39 42 44 43 47 50 52 54 51 52 52 51 51 49 50
6 9 17 18 25 7 3 3 6 18 14 15 17 24 26 25 26 31 36 37 36 36 32 30 27 28 31 37 42 43 43 42 42 44 44 40 33 33 48 50 50 53 52 54 55 57 54 53 52
7 7 6 7 5 8 5 2 4 8 11 11 17 17 21 22 24 32 36 38 36 36 34 33 30 28 26 21 23 30 40 40 40 40 42 39 36 42 45 45 45 51 51 53 57 58 56 55 54
4 5 6 2 4 3 2 2 6 7 8 10 13 20 22 25 22 26 34 36 35 34 34 33 32 28 25 22 22 18 16 23 37 38 36 40 41 39 39 40 45 43 39 49 54 56 56 57 56
4 7 4 4 3 2 2 3 3 4 6 7 12 23 30 28 28 22 32 34 36 35 33 32 29 29 27 24 20 19 19 18 19 21 22 27 33 33 33 36 44 43 46 40 47 53 58 59 58
Wind_Direction
250 266 279 304 48 67 267 258 258 279 307 267 204 180 198 199 164 213 164 170 178 181 189 186 190 199 199 191 189 185 181 176 170 167 167 164 161 157 153 150 147 144 141 139 136 133 133 133 135
256 266 239 125 108 147 255 232 232 225 250 319 278 239 219 226 194 193 182 186 185 201 199 220 211 199 198 192 189 185 182 178 175 171 169 167 164 161 157 154 150 146 141 140 138 138 135 135 135
265 264 261 145 158 209 219 215 235 249 288 301 279 256 244 202 204 219 193 200 189 200 219 226 228 204 195 191 188 185 183 181 178 174 171 169 167 165 161 158 153 149 144 143 141 143 139 140 136
248 237 234 148 223 252 211 239 194 330 314 299 294 274 239 211 214 197 191 194 203 206 241 321 267 202 190 188 187 185 184 182 179 175 171 170 169 167 164 161 157 152 148 145 146 147 144 143 137
230 230 227 255 253 261 255 258 287 273 273 287 290 256 224 215 191 191 192 196 195 196 349 353 258 192 184 186 186 185 184 183 180 176 173 172 171 169 166 165 160 155 152 151 149 149 150 150 143
232 171 169 243 245 260 264 259 265 254 278 282 291 246 224 196 199 197 193 187 166 109 16 352 215 187 183 185 187 186 184 183 181 179 176 174 173 172 170 168 163 158 156 155 153 152 154 157 150
181 108 228 233 256 268 251 258 228 252 268 274 298 242 268 199 201 196 186 183 172 140 58 13 200 185 183 187 187 186 186 184 184 183 180 177 176 175 173 171 167 162 160 158 158 156 160 163 159
217 139 256 219 242 268 265 251 253 245 269 284 292 259 240 216 194 185 185 181 181 169 154 84 190 185 184 188 189 188 188 187 186 186 184 182 180 178 177 175 170 165 161 161 162 162 165 168 165
208 227 253 232 226 237 122 262 252 253 264 274 277 285 295 281 196 188 186 186 186 181 172 158 176 189 188 189 191 191 191 191 189 190 189 186 185 183 182 179 173 167 164 165 166 168 170 177 173
183 221 250 224 234 250 259 263 277 277 276 278 281 275 279 259 197 192 191 191 192 192 186 179 180 192 192 190 192 193 193 194 194 194 193 193 191 188 187 182 176 171 167 169 170 173 178 186 181
209 235 241 251 249 250 261 269 261 268 269 266 265 274 263 242 209 209 210 221 242 215 199 193 190 193 196 194 194 196 196 197 198 198 198 197 196 193 192 187 179 176 173 172 174 177 186 191 190
253 249 254 258 257 260 258 269 263 250 256 269 271 267 270 240 226 221 223 233 232 234 231 209 200 197 201 201 199 199 199 200 201 201 202 201 201 199 196 194 185 185 182 179 179 182 187 193 196
232 250 254 261 262 263 269 261 263 257 259 266 268 264 261 257 243 238 237 237 240 227 228 228 214 205 202 206 207 204 204 204 204 204 206 206 206 205 202 201 198 196 190 186 184 184 189 195 200
222 249 258 265 268 268 264 269 259 258 250 258 262 260 255 256 254 247 226 226 226 225 224 229 227 219 209 207 211 212 210 209 208 208 209 209 210 209 207 204 204 201 196 190 190 189 190 197 203
242 254 265 256 258 255 266 275 246 261 254 252 255 255 254 249 247 245 248 247 244 239 243 229 231 226 217 213 213 215 215 214 212 211 212 211 212 213 211 209 211 207 202 197 194 192 190 198 202
261 246 253 265 231 245 202 256 268 239 237 245 248 250 254 259 257 261 258 257 257 259 250 248 240 228 225 219 216 215 216 217 216 216 215 214 216 215 213 214 214 210 204 202 200 197 193 197 201
233 251 245 262 235 234 200 243 264 245 236 243 246 248 246 247 249 257 259 260 261 260 264 257 245 233 224 220 219 218 218 219 218 218 217 217 217 218 216 217 217 214 209 207 206 200 199 196 200
246 246 246 249 257 224 243 241 257 244 221 242 250 251 241 244 251 257 257 260 264 265 261 256 254 238 226 222 219 218 217 218 218 218 221 219 220 219 217 218 220 216 212 211 209 206 201 200 202
250 255 256 249 252 229 250 240 251 244 239 247 254 245 250 253 259 262 262 266 267 256 252 253 252 237 225 218 210 214 212 212 217 222 222 219 222 222 217 219 220 218 216 215 214 209 205 199 203
253 254 255 260 261 232 250 251 253 249 241 242 245 254 251 254 254 260 264 265 264 254 244 253 253 236 225 220 216 219 217 218 220 220 218 220 219 225 221 218 219 219 217 217 216 214 207 204 205
271 250 260 257 255 253 246 257 255 250 248 246 249 250 253 251 253 257 261 264 262 254 246 247 247 231 225 221 218 212 214 216 210 214 219 220 222 226 221 222 221 220 220 219 218 215 214 206 203
261 269 279 261 256 247 227 259 255 256 249 244 247 241 248 250 248 253 255 258 264 258 244 245 236 225 224 218 215 203 203 201 206 214 219 219 219 226 224 223 226 222 222 222 221 221 219 213 208
255 250 274 275 272 271 265 247 261 310 241 240 236 239 242 245 244 244 248 255 253 248 242 243 230 224 224 219 219 214 203 205 205 215 219 219 220 224 223 221 228 225 224 226 225 224 221 221 217
253 257 253 282 269 266 248 200 285 271 243 248 225 350 284 260 253 243 245 241 242 243 237 235 228 226 221 216 217 214 211 211 209 215 210 218 215 215 219 226 228 228 227 228 227 228 229 222 222
233 224 245 249 231 253 211 206 233 37 33 71 81 56 54 49 90 144 178 183 200 218 221 216 217 213 212 207 207 208 212 220 221 219 215 211 213 216 220 227 230 229 230 230 228 227 230 229 226
273 209 212 237 225 283 192 203 91 317 90 85 68 69 63 59 60 78 93 105 115 141 166 182 188 195 199 204 206 214 215 220 223 221 227 224 215 223 234 231 233 235 231 231 232 231 231 231 232
333 217 222 239 274 279 232 215 72 63 64 72 77 68 62 61 62 68 86 91 94 99 113 125 140 168 185 196 207 213 215 215 216 222 220 219 220 234 240 238 239 236 237 234 231 230 230 232 234
250 308 193 185 226 241 262 40 37 61 94 60 76 62 57 56 59 72 73 80 84 87 92 100 106 104 114 139 179 193 207 210 217 219 219 222 219 234 236 236 234 234 244 243 237 236 233 232 234
338 7 322 191 127 199 132 37 353 49 40 66 68 72 62 52 46 63 76 77 76 76 79 82 89 91 94 98 105 127 156 201 216 213 211 212 221 226 227 231 237 233 248 249 247 243 240 235 236
294 334 311 347 6 85 116 91 345 35 48 71 75 63 61 56 41 37 66 70 71 70 68 68 72 76 76 84 94 100 114 126 143 171 195 215 225 227 228 230 241 242 248 253 244 245 243 239 238